M I D A S
Marine Information and Data Acquisition System
Tripno 1638 of the Zeeleeuw from 2009-02-03 07:50:40 to 2009-02-03 15:48:55
Back to CruiseResearch ActivitiesStationsMapUnderway DataData graphs

EquipmentUnitsComments
TimeDGPSUTC
LatitudeDGPSDM.mWGS84
LongitudeDGPSDM.mWGS84
SpeedMeteo Stationm/sRelative wind speed
DirectionMeteo StationdegRelative wind direction
TemperatureMeteo Stationdeg CelciusAir temperature
PressureMeteo StationPaAtmospheric pressure
HumidityMeteo Station%Relative humidity
Missing or incorrect values are displayed as -999
Metereological data collected by the RV Zeeleeuw from 2009-02-03 07:49:35 to 2009-02-03 16:00:02
                                                                                    Next 1000 lines
Time Latitude Longitude Speed Direction Temperature Pressure Humidity
2009-02-03 07:49:46 51°13.661 2°55.956 -999 -999 -999 -999 -999
2009-02-03 07:49:51 51°13.662 2°55.954 -999 -999 -999 -999 -999
2009-02-03 07:49:55 51°13.662 2°55.952 -999 -999 -999 -999 -999
2009-02-03 07:50:01 51°13.663 2°55.948 -999 -999 -999 -999 -999
2009-02-03 07:50:06 51°13.665 2°55.945 -999 -999 -999 -999 -999
2009-02-03 07:50:11 51°13.666 2°55.942 -999 -999 -999 -999 -999
2009-02-03 07:50:16 51°13.667 2°55.938 -999 -999 -999 -999 -999
2009-02-03 07:50:21 51°13.668 2°55.934 -999 -999 -999 -999 -999
2009-02-03 07:50:26 51°13.67 2°55.929 -999 -999 -999 -999 -999
2009-02-03 07:50:31 51°13.672 2°55.924 -999 -999 -999 -999 -999
2009-02-03 07:50:36 51°13.673 2°55.919 -999 -999 -999 -999 -999
2009-02-03 07:50:41 51°13.675 2°55.913 -999 -999 -999 -999 -999
2009-02-03 07:50:46 51°13.676 2°55.907 -999 -999 -999 -999 -999
2009-02-03 07:50:51 51°13.678 2°55.901 -999 -999 -999 -999 -999
2009-02-03 07:50:56 51°13.68 2°55.895 -999 -999 -999 -999 -999
2009-02-03 07:51:01 51°13.682 2°55.888 -999 -999 -999 -999 -999
2009-02-03 07:51:06 51°13.683 2°55.881 -999 -999 -999 -999 -999
2009-02-03 07:51:11 51°13.685 2°55.874 -999 -999 -999 -999 -999
2009-02-03 07:51:16 51°13.687 2°55.867 -999 -999 -999 -999 -999
2009-02-03 07:51:21 51°13.689 2°55.859 -999 -999 -999 -999 -999
2009-02-03 07:51:26 51°13.691 2°55.851 -999 -999 -999 -999 -999
2009-02-03 07:51:31 51°13.693 2°55.844 -999 -999 -999 -999 -999
2009-02-03 07:51:36 51°13.694 2°55.836 -999 -999 -999 -999 -999
2009-02-03 07:51:41 51°13.696 2°55.829 -999 -999 -999 -999 -999
2009-02-03 07:51:46 51°13.697 2°55.822 -999 -999 -999 -999 -999
2009-02-03 07:51:51 51°13.698 2°55.815 -999 -999 -999 -999 -999
2009-02-03 07:51:56 51°13.699 2°55.808 -999 -999 -999 -999 -999
2009-02-03 07:52:01 51°13.7 2°55.8 -999 -999 -999 -999 -999
2009-02-03 07:52:06 51°13.701 2°55.793 -999 -999 -999 -999 -999
2009-02-03 07:52:11 51°13.701 2°55.786 -999 -999 -999 -999 -999
2009-02-03 07:52:16 51°13.702 2°55.779 -999 -999 -999 -999 -999
2009-02-03 07:52:21 51°13.703 2°55.773 -999 -999 -999 -999 -999
2009-02-03 07:52:26 51°13.703 2°55.767 -999 -999 -999 -999 -999
2009-02-03 07:52:31 51°13.704 2°55.762 -999 -999 -999 -999 -999
2009-02-03 07:52:36 51°13.704 2°55.76 -999 -999 -999 -999 -999
2009-02-03 07:52:41 51°13.704 2°55.76 -999 -999 -999 -999 -999
2009-02-03 07:52:46 51°13.705 2°55.761 -999 -999 -999 -999 -999
2009-02-03 07:52:51 51°13.706 2°55.764 -999 -999 -999 -999 -999
2009-02-03 07:52:56 51°13.708 2°55.767 -999 -999 -999 -999 -999
2009-02-03 07:53:01 51°13.709 2°55.769 -999 -999 -999 -999 -999
2009-02-03 07:53:06 51°13.711 2°55.771 -999 -999 -999 -999 -999
2009-02-03 07:53:11 51°13.711 2°55.772 -999 -999 -999 -999 -999
2009-02-03 07:53:16 51°13.711 2°55.772 -999 -999 -999 -999 -999
2009-02-03 07:53:21 51°13.711 2°55.771 -999 -999 -999 -999 -999
2009-02-03 07:53:26 51°13.71 2°55.77 -999 -999 -999 -999 -999
2009-02-03 07:53:31 51°13.708 2°55.768 -999 -999 -999 -999 -999
2009-02-03 07:53:36 51°13.706 2°55.766 -999 -999 -999 -999 -999
2009-02-03 07:53:41 51°13.704 2°55.764 -999 -999 -999 -999 -999
2009-02-03 07:53:46 51°13.701 2°55.762 -999 -999 -999 -999 -999
2009-02-03 07:53:51 51°13.7 2°55.76 -999 -999 -999 -999 -999
2009-02-03 07:53:56 51°13.699 2°55.76 -999 -999 -999 -999 -999
2009-02-03 07:54:01 51°13.699 2°55.759 -999 -999 -999 -999 -999
2009-02-03 07:54:06 51°13.7 2°55.76 -999 -999 -999 -999 -999
2009-02-03 07:54:11 51°13.703 2°55.76 -999 -999 -999 -999 -999
2009-02-03 07:54:16 51°13.706 2°55.761 -999 -999 -999 -999 -999
2009-02-03 07:54:21 51°13.709 2°55.76 -999 -999 -999 -999 -999
2009-02-03 07:54:26 51°13.713 2°55.759 -999 -999 -999 -999 -999
2009-02-03 07:54:31 51°13.718 2°55.757 -999 -999 -999 -999 -999
2009-02-03 07:54:36 51°13.724 2°55.753 -999 -999 -999 -999 -999
2009-02-03 07:54:41 51°13.729 2°55.748 -999 -999 -999 -999 -999
2009-02-03 07:54:46 51°13.736 2°55.743 -999 -999 -999 -999 -999
2009-02-03 07:54:50 51°13.741 2°55.737 -999 -999 -999 -999 -999
2009-02-03 07:54:56 51°13.75 2°55.729 -999 -999 -999 -999 -999
2009-02-03 07:55:01 51°13.758 2°55.721 -999 -999 -999 -999 -999
2009-02-03 07:55:06 51°13.765 2°55.713 -999 -999 -999 -999 -999
2009-02-03 07:55:11 51°13.773 2°55.705 -999 -999 -999 -999 -999
2009-02-03 07:55:16 51°13.781 2°55.696 -999 -999 -999 -999 -999
2009-02-03 07:55:21 51°13.79 2°55.687 -999 -999 -999 -999 -999
2009-02-03 07:55:26 51°13.798 2°55.678 -999 -999 -999 -999 -999
2009-02-03 07:55:31 51°13.807 2°55.668 -999 -999 -999 -999 -999
2009-02-03 07:55:36 51°13.815 2°55.659 -999 -999 -999 -999 -999
2009-02-03 07:55:41 51°13.824 2°55.649 -999 -999 -999 -999 -999
2009-02-03 07:55:46 51°13.833 2°55.64 -999 -999 -999 -999 -999
2009-02-03 07:55:51 51°13.843 2°55.631 -999 -999 -999 -999 -999
2009-02-03 07:55:56 51°13.852 2°55.622 -999 -999 -999 -999 -999
2009-02-03 07:56:01 51°13.862 2°55.613 -999 -999 -999 -999 -999
2009-02-03 07:56:06 51°13.872 2°55.604 -999 -999 -999 -999 -999
2009-02-03 07:56:10 51°13.88 2°55.598 -999 -999 -999 -999 -999
2009-02-03 07:56:16 51°13.892 2°55.587 -999 -999 -999 -999 -999
2009-02-03 07:56:21 51°13.902 2°55.579 -999 -999 -999 -999 -999
2009-02-03 07:56:26 51°13.913 2°55.571 -999 -999 -999 -999 -999
2009-02-03 07:56:30 51°13.921 2°55.565 -999 -999 -999 -999 -999
2009-02-03 07:56:35 51°13.932 2°55.556 -999 -999 -999 -999 -999
2009-02-03 07:56:41 51°13.944 2°55.547 -999 -999 -999 -999 -999
2009-02-03 07:56:46 51°13.955 2°55.539 -999 -999 -999 -999 -999
2009-02-03 07:56:51 51°13.966 2°55.531 -999 -999 -999 -999 -999
2009-02-03 07:56:56 51°13.976 2°55.523 -999 -999 -999 -999 -999
2009-02-03 07:57:01 51°13.987 2°55.515 -999 -999 -999 -999 -999
2009-02-03 07:57:06 51°13.997 2°55.507 -999 -999 -999 -999 -999
2009-02-03 07:57:11 51°14.008 2°55.499 -999 -999 -999 -999 -999
2009-02-03 07:57:15 51°14.016 2°55.492 -999 -999 -999 -999 -999
2009-02-03 07:57:21 51°14.029 2°55.483 -999 -999 -999 -999 -999
2009-02-03 07:57:26 51°14.039 2°55.475 -999 -999 -999 -999 -999
2009-02-03 07:57:31 51°14.05 2°55.467 -999 -999 -999 -999 -999
2009-02-03 07:57:36 51°14.061 2°55.459 -999 -999 -999 -999 -999
2009-02-03 07:57:41 51°14.071 2°55.452 -999 -999 -999 -999 -999
2009-02-03 07:57:46 51°14.082 2°55.443 -999 -999 -999 -999 -999
2009-02-03 07:57:51 51°14.092 2°55.435 -999 -999 -999 -999 -999
2009-02-03 07:57:56 51°14.103 2°55.427 -999 -999 -999 -999 -999
2009-02-03 07:58:01 51°14.114 2°55.418 -999 -999 -999 -999 -999
2009-02-03 07:58:06 51°14.124 2°55.409 -999 -999 -999 -999 -999
2009-02-03 07:58:11 51°14.135 2°55.4 -999 -999 -999 -999 -999
2009-02-03 07:58:16 51°14.145 2°55.39 -999 -999 -999 -999 -999
2009-02-03 07:58:21 51°14.156 2°55.38 -999 -999 -999 -999 -999
2009-02-03 07:58:26 51°14.167 2°55.37 -999 -999 -999 -999 -999
2009-02-03 07:58:31 51°14.177 2°55.36 -999 -999 -999 -999 -999
2009-02-03 07:58:36 51°14.188 2°55.349 -999 -999 -999 -999 -999
2009-02-03 07:58:41 51°14.198 2°55.338 -999 -999 -999 -999 -999
2009-02-03 07:58:46 51°14.208 2°55.326 -999 -999 -999 -999 -999
2009-02-03 07:58:51 51°14.218 2°55.314 -999 -999 -999 -999 -999
2009-02-03 07:58:55 51°14.226 2°55.304 -999 -999 -999 -999 -999
2009-02-03 07:59:01 51°14.238 2°55.288 -999 -999 -999 -999 -999
2009-02-03 07:59:06 51°14.248 2°55.275 -999 -999 -999 -999 -999
2009-02-03 07:59:11 51°14.257 2°55.26 -999 -999 -999 -999 -999
2009-02-03 07:59:15 51°14.264 2°55.248 -999 -999 -999 -999 -999
2009-02-03 07:59:21 51°14.276 2°55.231 -999 -999 -999 -999 -999
2009-02-03 07:59:26 51°14.285 2°55.215 -999 -999 -999 -999 -999
2009-02-03 07:59:31 51°14.294 2°55.2 -999 -999 -999 -999 -999
2009-02-03 07:59:36 51°14.303 2°55.184 -999 -999 -999 -999 -999
2009-02-03 07:59:41 51°14.312 2°55.168 -999 -999 -999 -999 -999
2009-02-03 07:59:46 51°14.322 2°55.153 -999 -999 -999 -999 -999
2009-02-03 07:59:51 51°14.331 2°55.136 -999 -999 -999 -999 -999
2009-02-03 07:59:56 51°14.339 2°55.119 -999 -999 -999 -999 -999
2009-02-03 08:00:01 51°14.348 2°55.103 -999 -999 -999 -999 -999
2009-02-03 08:00:06 51°14.357 2°55.085 -999 -999 -999 -999 -999
2009-02-03 08:00:10 51°14.364 2°55.071 -999 -999 -999 -999 -999
2009-02-03 08:00:16 51°14.374 2°55.05 -999 -999 -999 -999 -999
2009-02-03 08:00:21 51°14.383 2°55.032 -999 -999 -999 -999 -999
2009-02-03 08:00:26 51°14.392 2°55.014 -999 -999 -999 -999 -999
2009-02-03 08:00:31 51°14.401 2°54.997 -999 -999 -999 -999 -999
2009-02-03 08:00:36 51°14.412 2°54.98 -999 -999 -999 -999 -999
2009-02-03 08:00:41 51°14.423 2°54.964 -999 -999 -999 -999 -999
2009-02-03 08:00:46 51°14.434 2°54.949 -999 -999 -999 -999 -999
2009-02-03 08:00:50 51°14.443 2°54.937 -999 -999 -999 -999 -999
2009-02-03 08:00:56 51°14.457 2°54.918 -999 -999 -999 -999 -999
2009-02-03 08:01:01 51°14.469 2°54.903 -999 -999 -999 -999 -999
2009-02-03 08:01:06 51°14.481 2°54.888 -999 -999 -999 -999 -999
2009-02-03 08:01:11 51°14.494 2°54.874 -999 -999 -999 -999 -999
2009-02-03 08:01:15 51°14.504 2°54.862 -999 -999 -999 -999 -999
2009-02-03 08:01:21 51°14.519 2°54.845 -999 -999 -999 -999 -999
2009-02-03 08:01:26 51°14.533 2°54.832 -999 -999 -999 -999 -999
2009-02-03 08:01:31 51°14.546 2°54.819 -999 -999 -999 -999 -999
2009-02-03 08:01:35 51°14.557 2°54.808 -999 9 -999 -999 -999
2009-02-03 08:01:40 51°14.572 2°54.796 3.3 6 -999 -999 -999
2009-02-03 08:01:46 51°14.589 2°54.781 4.4 247 -999 -999 -999
2009-02-03 08:01:50 51°14.601 2°54.771 3.3 251 -999 -999 -999
2009-02-03 08:01:55 51°14.615 2°54.757 4.9 286 -999 -999 -999
2009-02-03 08:02:00 51°14.629 2°54.744 4.1 244 -999 -999 -999
2009-02-03 08:02:05 51°14.644 2°54.73 3 282 -0.8 -999 80
2009-02-03 08:02:10 51°14.658 2°54.717 4.1 234 -0.8 -999 80
2009-02-03 08:02:15 51°14.673 2°54.703 3.9 285 -0.7 -999 82
2009-02-03 08:02:20 51°14.688 2°54.689 2.3 32 -0.7 -999 82
2009-02-03 08:02:25 51°14.703 2°54.675 3.4 282 -0.6 99920 82
2009-02-03 08:02:30 51°14.717 2°54.662 4 242 -0.6 99920 82
2009-02-03 08:02:35 51°14.732 2°54.649 5.4 286 -0.6 99920 83
2009-02-03 08:02:39 51°14.744 2°54.638 5.4 246 -0.6 99920 83
2009-02-03 08:02:44 51°14.759 2°54.624 4.8 286 -0.6 99920 83
2009-02-03 08:02:49 51°14.774 2°54.611 4.4 246 -0.6 99920 83
2009-02-03 08:02:54 51°14.789 2°54.598 5.4 283 -0.6 99910 83
2009-02-03 08:02:59 51°14.804 2°54.584 5.7 244 -0.6 99910 83
2009-02-03 08:03:04 51°14.819 2°54.571 4.1 282 -0.6 99920 82
2009-02-03 08:03:09 51°14.834 2°54.558 3.9 250 -0.6 99920 82
2009-02-03 08:03:14 51°14.849 2°54.545 4.5 287 -0.6 99920 83
2009-02-03 08:03:19 51°14.864 2°54.532 3.3 244 -0.6 99920 83
2009-02-03 08:03:24 51°14.88 2°54.519 3.6 282 -0.6 99920 84
2009-02-03 08:03:29 51°14.895 2°54.506 4.5 238 -0.6 99920 84
2009-02-03 08:03:34 51°14.91 2°54.493 4 285 -0.6 99920 84
2009-02-03 08:03:39 51°14.925 2°54.48 4.7 241 -0.6 99920 84
2009-02-03 08:03:43 51°14.938 2°54.47 4 283 -0.6 99920 85
2009-02-03 08:03:48 51°14.953 2°54.456 5.1 241 -0.6 99920 85
2009-02-03 08:03:53 51°14.968 2°54.443 5.5 287 -0.6 99920 85
2009-02-03 08:03:58 51°14.983 2°54.43 4.2 244 -0.6 99920 85
2009-02-03 08:04:03 51°14.999 2°54.417 5.4 285 -0.6 99910 85
2009-02-03 08:04:08 51°15.014 2°54.404 3.9 246 -0.6 99910 85
2009-02-03 08:04:13 51°15.029 2°54.391 4.1 284 -0.6 99920 84
2009-02-03 08:04:18 51°15.045 2°54.379 4.2 241 -0.6 99920 84
2009-02-03 08:04:23 51°15.06 2°54.366 4.1 280 -0.6 99920 86
2009-02-03 08:04:28 51°15.075 2°54.353 4.2 242 -0.6 99920 86
2009-02-03 08:04:33 51°15.09 2°54.339 3.9 284 -0.5 99920 86
2009-02-03 08:04:38 51°15.105 2°54.326 2.9 245 -0.5 99920 86
2009-02-03 08:04:42 51°15.117 2°54.316 3.6 281 -0.5 99920 86
2009-02-03 08:04:47 51°15.132 2°54.302 3.7 249 -0.5 99920 86
2009-02-03 08:04:52 51°15.146 2°54.29 3.8 286 -0.5 99920 86
2009-02-03 08:04:57 51°15.161 2°54.277 4.5 243 -0.5 99920 86
2009-02-03 08:05:02 51°15.176 2°54.264 3.7 280 -0.5 99920 86
2009-02-03 08:05:07 51°15.191 2°54.251 3 247 -0.5 99920 86
2009-02-03 08:05:12 51°15.206 2°54.239 3.2 281 -0.5 99920 87
2009-02-03 08:05:17 51°15.221 2°54.226 4.6 253 -0.5 99920 87
2009-02-03 08:05:22 51°15.236 2°54.213 3 281 -0.5 99920 87
2009-02-03 08:05:27 51°15.25 2°54.2 4.4 246 -0.5 99920 87
2009-02-03 08:05:32 51°15.265 2°54.187 4.2 283 -0.5 99920 86
2009-02-03 08:05:37 51°15.28 2°54.175 4.6 251 -0.5 99920 86
2009-02-03 08:05:42 51°15.295 2°54.162 5.8 282 -0.5 99920 85
2009-02-03 08:05:47 51°15.31 2°54.15 4 260 -0.5 99920 85
2009-02-03 08:05:52 51°15.325 2°54.137 3.8 280 -0.5 99920 88
2009-02-03 08:05:57 51°15.34 2°54.125 3.4 246 -0.5 99920 88
2009-02-03 08:06:02 51°15.355 2°54.111 3.8 286 -0.5 99920 87
2009-02-03 08:06:07 51°15.369 2°54.099 4.8 248 -0.5 99920 87
2009-02-03 08:06:12 51°15.384 2°54.086 4.8 281 -0.5 99930 87
2009-02-03 08:06:17 51°15.399 2°54.073 6.6 255 -0.5 99930 87
2009-02-03 08:06:22 51°15.414 2°54.06 4.4 280 -0.5 99930 87
2009-02-03 08:06:27 51°15.429 2°54.048 4.3 260 -0.5 99930 87
2009-02-03 08:06:32 51°15.444 2°54.035 4.3 283 -0.5 99920 87
2009-02-03 08:06:37 51°15.459 2°54.023 4.9 258 -0.5 99920 87
2009-02-03 08:06:42 51°15.474 2°54.011 3.9 285 -0.5 99920 88
2009-02-03 08:06:47 51°15.489 2°53.999 4.3 257 -0.5 99920 88
2009-02-03 08:06:52 51°15.505 2°53.987 3.6 287 -0.5 99930 88
2009-02-03 08:06:57 51°15.52 2°53.975 6.1 251 -0.5 99930 88
2009-02-03 08:07:02 51°15.535 2°53.963 4.8 282 -0.5 99930 87
2009-02-03 08:07:07 51°15.551 2°53.951 4.8 254 -0.5 99930 87
2009-02-03 08:07:12 51°15.566 2°53.939 4.4 286 -0.5 99920 88
2009-02-03 08:07:17 51°15.581 2°53.927 4 252 -0.5 99920 88
2009-02-03 08:07:22 51°15.596 2°53.915 4.1 279 -0.5 99920 88
2009-02-03 08:07:27 51°15.612 2°53.903 5.1 252 -0.5 99920 88
2009-02-03 08:07:32 51°15.627 2°53.891 4.5 287 -0.5 99930 87
2009-02-03 08:07:37 51°15.642 2°53.878 5.5 255 -0.5 99930 87
2009-02-03 08:07:42 51°15.657 2°53.866 4.6 281 -0.4 99930 88
2009-02-03 08:07:47 51°15.672 2°53.853 4.2 250 -0.4 99930 88
2009-02-03 08:07:52 51°15.688 2°53.84 5.6 282 -0.4 99930 88
2009-02-03 08:07:57 51°15.703 2°53.826 6 257 -0.4 99930 88
2009-02-03 08:08:02 51°15.718 2°53.813 3.9 282 -0.4 99930 88
2009-02-03 08:08:07 51°15.732 2°53.799 4.8 242 -0.4 99930 88
2009-02-03 08:08:12 51°15.747 2°53.786 3.9 281 -0.4 99930 87
2009-02-03 08:08:17 51°15.762 2°53.772 4.9 251 -0.4 99930 87
2009-02-03 08:08:22 51°15.777 2°53.759 4.6 285 -0.4 99920 88
2009-02-03 08:08:27 51°15.792 2°53.745 5.1 257 -0.4 99920 88
2009-02-03 08:08:32 51°15.807 2°53.732 6 280 -0.4 99930 88
2009-02-03 08:08:37 51°15.822 2°53.718 5.1 251 -0.4 99930 88
2009-02-03 08:08:42 51°15.837 2°53.705 4.7 282 -0.4 99930 87
2009-02-03 08:08:47 51°15.852 2°53.691 4.6 240 -0.4 99930 87
2009-02-03 08:08:52 51°15.867 2°53.678 3.8 279 -0.4 99930 88
2009-02-03 08:08:57 51°15.882 2°53.664 3.5 243 -0.4 99930 88
2009-02-03 08:09:02 51°15.897 2°53.651 4.6 286 -0.4 99930 88
2009-02-03 08:09:07 51°15.912 2°53.638 5.2 251 -0.4 99930 88
2009-02-03 08:09:12 51°15.927 2°53.625 4 281 -0.4 99930 88
2009-02-03 08:09:17 51°15.942 2°53.612 3.9 252 -0.4 99930 88
2009-02-03 08:09:22 51°15.957 2°53.598 5.2 287 -0.4 99930 88
2009-02-03 08:09:27 51°15.973 2°53.585 4.7 249 -0.4 99930 88
2009-02-03 08:09:32 51°15.988 2°53.572 5 282 -0.4 99930 89
2009-02-03 08:09:37 51°16.003 2°53.559 3.9 245 -0.4 99930 89
2009-02-03 08:09:42 51°16.018 2°53.546 3.8 281 -0.4 99930 88
2009-02-03 08:09:47 51°16.034 2°53.534 3.8 249 -0.4 99930 88
2009-02-03 08:09:52 51°16.049 2°53.522 5.1 287 -0.4 99930 88
2009-02-03 08:09:57 51°16.064 2°53.51 5.3 255 -0.4 99930 88
2009-02-03 08:10:02 51°16.08 2°53.498 4.9 282 -0.4 99930 89
2009-02-03 08:10:07 51°16.095 2°53.486 4.8 254 -0.4 99930 89
2009-02-03 08:10:12 51°16.11 2°53.475 4.7 252 -0.4 99930 88
2009-02-03 08:10:18 51°16.129 2°53.461 3.1 250 -0.4 99930 88
2009-02-03 08:10:22 51°16.141 2°53.452 5.3 286 -0.4 99930 88
2009-02-03 08:10:27 51°16.157 2°53.44 5 255 -0.4 99930 88
2009-02-03 08:10:32 51°16.172 2°53.429 4.4 283 -0.4 99930 88
2009-02-03 08:10:37 51°16.188 2°53.417 4.5 248 -0.4 99930 88
2009-02-03 08:10:42 51°16.203 2°53.406 3.4 288 -0.4 99930 89
2009-02-03 08:10:47 51°16.218 2°53.394 5.3 246 -0.4 99930 89
2009-02-03 08:10:52 51°16.234 2°53.382 4.8 283 -0.4 99930 88
2009-02-03 08:10:57 51°16.249 2°53.371 4.5 244 -0.4 99930 88
2009-02-03 08:11:02 51°16.265 2°53.359 5.3 281 -0.4 99940 89
2009-02-03 08:11:06 51°16.277 2°53.35 5.3 250 -0.4 99940 89
2009-02-03 08:11:12 51°16.295 2°53.336 5.4 286 -0.4 99930 89
2009-02-03 08:11:17 51°16.311 2°53.324 5.1 249 -0.4 99930 89
2009-02-03 08:11:22 51°16.326 2°53.312 4.8 284 -0.4 99930 89
2009-02-03 08:11:27 51°16.341 2°53.3 4.9 248 -0.4 99930 89
2009-02-03 08:11:32 51°16.356 2°53.288 5.3 279 -0.4 99930 89
2009-02-03 08:11:37 51°16.372 2°53.276 4 251 -0.4 99930 89
2009-02-03 08:11:42 51°16.387 2°53.264 4 287 -0.4 99930 88
2009-02-03 08:11:47 51°16.402 2°53.251 5.3 253 -0.4 99930 88
2009-02-03 08:11:52 51°16.418 2°53.239 4.7 282 -0.4 99930 88
2009-02-03 08:11:57 51°16.433 2°53.227 4.9 246 -0.4 99930 88
2009-02-03 08:12:02 51°16.448 2°53.215 4.6 280 -0.4 99930 89
2009-02-03 08:12:07 51°16.463 2°53.202 4.5 250 -0.4 99930 89
2009-02-03 08:12:12 51°16.479 2°53.19 6.6 286 -0.3 99930 89
2009-02-03 08:12:17 51°16.494 2°53.178 4.8 255 -0.3 99930 89
2009-02-03 08:12:22 51°16.51 2°53.166 4 282 -0.3 99930 89
2009-02-03 08:12:27 51°16.525 2°53.153 6.1 255 -0.3 99930 89
2009-02-03 08:12:32 51°16.541 2°53.141 4.8 281 -0.3 99930 90
2009-02-03 08:12:37 51°16.556 2°53.129 4.1 251 -0.3 99930 90
2009-02-03 08:12:42 51°16.572 2°53.116 5.9 286 -0.3 99930 89
2009-02-03 08:12:47 51°16.587 2°53.104 4.8 249 -0.3 99930 89
2009-02-03 08:12:52 51°16.603 2°53.091 4.3 286 -0.3 99930 88
2009-02-03 08:12:57 51°16.618 2°53.079 5.2 248 -0.3 99930 88
2009-02-03 08:13:02 51°16.634 2°53.067 5.3 285 -0.3 99930 89
2009-02-03 08:13:07 51°16.65 2°53.055 3.7 251 -0.3 99930 89
2009-02-03 08:13:12 51°16.665 2°53.043 4.1 285 -0.3 99930 88
2009-02-03 08:13:17 51°16.681 2°53.031 3.9 255 -0.3 99930 88
2009-02-03 08:13:22 51°16.696 2°53.018 5.1 285 -0.3 99920 89
2009-02-03 08:13:26 51°16.709 2°53.009 4.5 253 -0.3 99920 89
2009-02-03 08:13:32 51°16.727 2°52.994 3.5 281 -0.3 99930 90
2009-02-03 08:13:37 51°16.743 2°52.982 4.7 252 -0.3 99930 90
2009-02-03 08:13:42 51°16.758 2°52.969 4.2 280 -0.3 99930 89
2009-02-03 08:13:47 51°16.773 2°52.956 4.6 249 -0.3 99930 89
2009-02-03 08:13:52 51°16.789 2°52.944 4 281 -0.3 99930 89
2009-02-03 08:13:57 51°16.804 2°52.931 5.3 245 -0.3 99930 89
2009-02-03 08:14:02 51°16.819 2°52.919 5.3 281 -0.3 99930 89
2009-02-03 08:14:07 51°16.835 2°52.907 4.4 250 -0.3 99930 89
2009-02-03 08:14:12 51°16.85 2°52.895 6.1 282 -0.3 99930 89
2009-02-03 08:14:17 51°16.865 2°52.882 5.4 254 -0.3 99930 89
2009-02-03 08:14:22 51°16.881 2°52.87 5.1 281 -0.3 99930 90
2009-02-03 08:14:27 51°16.896 2°52.858 5 252 -0.3 99930 90
2009-02-03 08:14:31 51°16.908 2°52.848 4.6 280 -0.3 99930 89
2009-02-03 08:14:37 51°16.927 2°52.834 3.9 249 -0.3 99930 89
2009-02-03 08:14:42 51°16.943 2°52.821 3.9 279 -0.3 99930 90
2009-02-03 08:14:47 51°16.958 2°52.809 5.8 247 -0.3 99930 90
2009-02-03 08:14:52 51°16.974 2°52.797 5.3 281 -0.3 99930 89
2009-02-03 08:14:57 51°16.989 2°52.784 4.3 251 -0.3 99930 89
2009-02-03 08:15:02 51°17.004 2°52.771 4.1 286 -0.3 99930 89
2009-02-03 08:15:07 51°17.02 2°52.759 4.7 252 -0.3 99930 89
2009-02-03 08:15:12 51°17.036 2°52.746 4 281 -0.3 99930 89
2009-02-03 08:15:17 51°17.051 2°52.734 3.9 255 -0.3 99930 89
2009-02-03 08:15:22 51°17.067 2°52.721 4 281 -0.3 99930 90
2009-02-03 08:15:27 51°17.082 2°52.709 5 249 -0.3 99930 90
2009-02-03 08:15:32 51°17.097 2°52.696 5.5 282 -0.3 99930 88
2009-02-03 08:15:37 51°17.113 2°52.684 3.9 248 -0.3 99930 88
2009-02-03 08:15:42 51°17.128 2°52.672 4.1 285 -0.3 99930 89
2009-02-03 08:15:47 51°17.144 2°52.659 5.4 251 -0.3 99930 89
2009-02-03 08:15:52 51°17.158 2°52.645 5.4 284 -0.3 99930 90
2009-02-03 08:15:57 51°17.174 2°52.633 5.8 247 -0.3 99930 90
2009-02-03 08:16:02 51°17.189 2°52.62 4.1 282 -0.3 99930 89
2009-02-03 08:16:07 51°17.204 2°52.607 5.3 255 -0.3 99930 89
2009-02-03 08:16:12 51°17.22 2°52.596 4.7 286 -0.3 99930 90
2009-02-03 08:16:17 51°17.235 2°52.584 4.2 259 -0.3 99930 90
2009-02-03 08:16:22 51°17.251 2°52.574 4.3 281 -0.3 99940 89
2009-02-03 08:16:27 51°17.267 2°52.562 3.3 254 -0.3 99940 89
2009-02-03 08:16:32 51°17.283 2°52.553 3.2 281 -0.3 99940 90
2009-02-03 08:16:37 51°17.298 2°52.542 3.1 260 -0.3 99940 90
2009-02-03 08:16:42 51°17.315 2°52.534 3.5 281 -0.3 99930 89
2009-02-03 08:16:46 51°17.328 2°52.527 2.1 264 -0.3 99930 89
2009-02-03 08:16:52 51°17.348 2°52.518 2.5 285 -0.3 99940 90
2009-02-03 08:16:57 51°17.364 2°52.511 3.6 34 -0.3 99940 90
2009-02-03 08:17:02 51°17.381 2°52.505 2.6 285 -0.3 99930 89
2009-02-03 08:17:07 51°17.398 2°52.499 2.2 253 -0.3 99930 89
2009-02-03 08:17:12 51°17.415 2°52.493 1.8 287 -0.3 99940 89
2009-02-03 08:17:17 51°17.432 2°52.488 1.8 41 -0.3 99940 89
2009-02-03 08:17:22 51°17.449 2°52.484 1.9 285 -0.3 99940 90
2009-02-03 08:17:27 51°17.466 2°52.48 1.6 240 -0.3 99940 90
2009-02-03 08:17:32 51°17.483 2°52.476 2 281 -0.3 99930 89
2009-02-03 08:17:37 51°17.501 2°52.473 1.4 262 -0.3 99930 89
2009-02-03 08:17:42 51°17.518 2°52.47 1.2 279 -0.3 99940 90
2009-02-03 08:17:47 51°17.535 2°52.467 1.4 262 -0.3 99940 90
2009-02-03 08:17:51 51°17.549 2°52.465 2.1 281 -0.2 99940 90
2009-02-03 08:17:57 51°17.57 2°52.462 1.7 260 -0.2 99940 90
2009-02-03 08:18:02 51°17.588 2°52.459 1.6 282 -0.2 99940 90
2009-02-03 08:18:07 51°17.605 2°52.457 1.5 262 -0.2 99940 90
2009-02-03 08:18:12 51°17.622 2°52.455 1.1 281 -0.2 99940 90
2009-02-03 08:18:17 51°17.64 2°52.452 1.4 40 -0.2 99940 90
2009-02-03 08:18:22 51°17.657 2°52.452 1.1 282 -0.2 99950 90
2009-02-03 08:18:27 51°17.674 2°52.45 1.3 258 -0.2 99950 90
2009-02-03 08:18:32 51°17.691 2°52.448 0.9 284 -0.2 99940 90
2009-02-03 08:18:37 51°17.709 2°52.446 1.2 255 -0.2 99940 90
2009-02-03 08:18:42 51°17.727 2°52.446 1.4 284 -0.2 99940 90
2009-02-03 08:18:47 51°17.744 2°52.444 0.9 255 -0.2 99940 90
2009-02-03 08:18:52 51°17.761 2°52.443 0.7 282 -0.2 99940 90
2009-02-03 08:18:57 51°17.779 2°52.442 1.1 268 -0.2 99940 90
2009-02-03 08:19:02 51°17.796 2°52.441 1.4 80 -0.2 99940 90
2009-02-03 08:19:07 51°17.814 2°52.439 0.7 251 -0.2 99940 90
2009-02-03 08:19:12 51°17.831 2°52.437 1.8 284 -0.2 99940 90
2009-02-03 08:19:17 51°17.848 2°52.435 1.3 258 -0.2 99940 90
2009-02-03 08:19:22 51°17.865 2°52.434 1 281 -0.2 99940 89
2009-02-03 08:19:27 51°17.883 2°52.432 1.3 260 -0.2 99940 89
2009-02-03 08:19:32 51°17.9 2°52.431 1.2 284 -0.2 99940 90
2009-02-03 08:19:37 51°17.917 2°52.43 1 261 -0.2 99940 90
2009-02-03 08:19:42 51°17.935 2°52.429 1.1 284 -0.2 99940 90
2009-02-03 08:19:47 51°17.952 2°52.427 1.2 263 -0.2 99940 90
2009-02-03 08:19:52 51°17.969 2°52.425 1.1 282 -0.2 99940 90
2009-02-03 08:19:57 51°17.987 2°52.423 1.6 253 -0.2 99940 90
2009-02-03 08:20:02 51°18.004 2°52.422 1.4 279 -0.2 99940 89
2009-02-03 08:20:06 51°18.018 2°52.42 2.3 255 -0.2 99940 89
2009-02-03 08:20:12 51°18.039 2°52.418 2.1 285 -0.2 99940 90
2009-02-03 08:20:17 51°18.056 2°52.415 1.4 264 -0.2 99940 90
2009-02-03 08:20:22 51°18.073 2°52.413 2.1 286 -0.2 99940 91
2009-02-03 08:20:27 51°18.09 2°52.409 1.6 258 -0.2 99940 91
2009-02-03 08:20:32 51°18.107 2°52.407 1.8 278 -0.2 99940 90
2009-02-03 08:20:37 51°18.124 2°52.404 1.4 253 -0.2 99940 90
2009-02-03 08:20:42 51°18.142 2°52.403 1.8 283 -0.2 99940 91
2009-02-03 08:20:47 51°18.159 2°52.4 1.6 261 -0.2 99940 91
2009-02-03 08:20:52 51°18.176 2°52.399 2.6 286 -0.2 99940 90
2009-02-03 08:20:57 51°18.193 2°52.397 2.3 259 -0.2 99940 90
2009-02-03 08:21:02 51°18.211 2°52.395 2.3 286 -0.2 99940 90
2009-02-03 08:21:07 51°18.228 2°52.393 1.7 263 -0.2 99940 90
2009-02-03 08:21:11 51°18.242 2°52.392 2.1 13 -0.2 99940 89
2009-02-03 08:21:17 51°18.263 2°52.39 1.9 267 -0.2 99940 89
2009-02-03 08:21:22 51°18.28 2°52.388 1.7 283 -0.2 99940 89
2009-02-03 08:21:27 51°18.297 2°52.386 1.4 263 -0.2 99940 89
2009-02-03 08:21:32 51°18.314 2°52.384 1.5 287 -0.2 99940 90
2009-02-03 08:21:37 51°18.332 2°52.382 1.4 270 -0.2 99940 90
2009-02-03 08:21:42 51°18.349 2°52.38 2 284 -0.2 99940 89
2009-02-03 08:21:47 51°18.366 2°52.379 1.7 267 -0.2 99940 89
2009-02-03 08:21:52 51°18.384 2°52.378 1 283 -0.2 99940 90
2009-02-03 08:21:57 51°18.401 2°52.378 1.1 37 -0.2 99940 90
2009-02-03 08:22:02 51°18.419 2°52.377 1 79 -0.2 99940 90
2009-02-03 08:22:07 51°18.436 2°52.377 0.9 33 -0.2 99940 90
2009-02-03 08:22:12 51°18.454 2°52.377 1.5 22 -0.2 99940 90
2009-02-03 08:22:17 51°18.471 2°52.377 1.2 30 -0.2 99940 90
2009-02-03 08:22:22 51°18.489 2°52.377 1 73 -0.2 99940 90
2009-02-03 08:22:27 51°18.506 2°52.377 1.1 37 -0.2 99940 90
2009-02-03 08:22:32 51°18.524 2°52.377 0.8 80 -0.2 99930 90
2009-02-03 08:22:37 51°18.541 2°52.377 0.8 34 -0.2 99930 90
2009-02-03 08:22:42 51°18.559 2°52.377 0.7 73 -0.2 99940 90
2009-02-03 08:22:47 51°18.576 2°52.377 0.7 36 -0.2 99940 90
2009-02-03 08:22:52 51°18.594 2°52.377 0.6 74 -0.2 99930 90
2009-02-03 08:22:57 51°18.612 2°52.377 0.5 32 -0.2 99930 90
2009-02-03 08:23:02 51°18.629 2°52.38 0.3 13 -0.2 99940 90
2009-02-03 08:23:07 51°18.647 2°52.382 0.3 358 -0.2 99940 90
2009-02-03 08:23:12 51°18.664 2°52.385 0.6 357 -0.2 99930 90
2009-02-03 08:23:17 51°18.681 2°52.388 0.4 357 -0.2 99930 90
2009-02-03 08:23:22 51°18.699 2°52.391 0.3 358 -0.3 99940 90
2009-02-03 08:23:26 51°18.713 2°52.394 0.3 360 -0.3 99940 90
2009-02-03 08:23:32 51°18.734 2°52.399 0.2 3 -0.2 99930 90
2009-02-03 08:23:37 51°18.751 2°52.403 0.2 3 -0.2 99930 90
2009-02-03 08:23:42 51°18.768 2°52.407 0.2 2 -0.3 99940 90
2009-02-03 08:23:47 51°18.785 2°52.411 0.1 2 -0.3 99940 90
2009-02-03 08:23:52 51°18.802 2°52.415 0.1 2 -0.2 99930 90
2009-02-03 08:23:57 51°18.819 2°52.418 0.1 1 -0.2 99930 90
2009-02-03 08:24:02 51°18.837 2°52.422 0.5 356 -0.2 99940 89
2009-02-03 08:24:07 51°18.854 2°52.426 0.8 341 -0.2 99940 89
2009-02-03 08:24:12 51°18.871 2°52.43 0.7 333 -0.2 99940 90
2009-02-03 08:24:17 51°18.888 2°52.434 1.1 351 -0.2 99940 90
2009-02-03 08:24:22 51°18.905 2°52.439 1.2 281 -0.2 99930 90
2009-02-03 08:24:27 51°18.922 2°52.443 1 338 -0.2 99930 90
2009-02-03 08:24:31 51°18.935 2°52.447 1 280 -0.2 99940 90
2009-02-03 08:24:37 51°18.956 2°52.452 1 331 -0.2 99940 90
2009-02-03 08:24:42 51°18.973 2°52.456 0.7 282 -0.2 99930 90
2009-02-03 08:24:47 51°18.99 2°52.46 0.8 332 -0.2 99930 90
2009-02-03 08:24:52 51°19.007 2°52.465 0.9 282 -0.2 99930 91
2009-02-03 08:24:57 51°19.024 2°52.469 0.9 332 -0.2 99930 91
2009-02-03 08:25:02 51°19.041 2°52.473 0.9 345 -0.2 99930 91
2009-02-03 08:25:07 51°19.058 2°52.477 0.9 345 -0.2 99930 91
2009-02-03 08:25:12 51°19.076 2°52.481 0.8 338 -0.2 99930 91
2009-02-03 08:25:17 51°19.092 2°52.485 0.5 332 -0.2 99930 91
2009-02-03 08:25:22 51°19.11 2°52.489 0.4 279 -0.1 99940 91
2009-02-03 08:25:27 51°19.127 2°52.493 0.3 331 -0.1 99940 91
2009-02-03 08:25:32 51°19.144 2°52.497 0.4 279 -0.1 99930 91
2009-02-03 08:25:37 51°19.161 2°52.5 0.3 325 -0.1 99930 91
2009-02-03 08:25:42 51°19.178 2°52.505 0.5 356 -0.1 99930 91
2009-02-03 08:25:47 51°19.195 2°52.511 0.5 345 -0.1 99930 91
2009-02-03 08:25:52 51°19.212 2°52.517 0.9 344 -0.1 99940 91
2009-02-03 08:25:57 51°19.228 2°52.523 0.9 344 -0.1 99940 91
2009-02-03 08:26:02 51°19.245 2°52.529 0.9 353 -0.1 99940 91
2009-02-03 08:26:07 51°19.262 2°52.536 0.9 354 -0.1 99940 91
2009-02-03 08:26:12 51°19.279 2°52.543 0.7 354 -0.1 99930 91
2009-02-03 08:26:17 51°19.295 2°52.551 1.2 1 -0.1 99930 91
2009-02-03 08:26:22 51°19.312 2°52.558 1.2 13 -0.1 99940 91
2009-02-03 08:26:27 51°19.329 2°52.566 1 6 -0.1 99940 91
2009-02-03 08:26:32 51°19.345 2°52.573 1.4 9 -0.1 99930 91
2009-02-03 08:26:37 51°19.362 2°52.582 1.2 7 -0.1 99930 91
2009-02-03 08:26:42 51°19.378 2°52.59 1.7 11 -0.1 99930 91
2009-02-03 08:26:46 51°19.392 2°52.597 1.5 9 -0.1 99930 91
2009-02-03 08:26:52 51°19.412 2°52.608 1.6 6 -0.1 99930 91
2009-02-03 08:26:57 51°19.428 2°52.617 1.7 11 -0.1 99930 91
2009-02-03 08:27:02 51°19.445 2°52.626 1.5 8 -0.1 99930 92
2009-02-03 08:27:07 51°19.461 2°52.635 2 10 -0.1 99930 92
2009-02-03 08:27:12 51°19.478 2°52.644 1.6 21 -0.1 99930 91
2009-02-03 08:27:17 51°19.494 2°52.654 1.6 14 -0.1 99930 91
2009-02-03 08:27:22 51°19.511 2°52.662 1.3 14 -0.1 99930 91
2009-02-03 08:27:27 51°19.527 2°52.672 1.1 18 -0.1 99930 91
2009-02-03 08:27:32 51°19.544 2°52.68 0.9 14 -0.1 99940 91
2009-02-03 08:27:37 51°19.56 2°52.689 1.1 15 -0.1 99940 91
2009-02-03 08:27:42 51°19.577 2°52.697 0.9 14 -0.1 99940 91
2009-02-03 08:27:47 51°19.593 2°52.706 1 12 -0.1 99940 91
2009-02-03 08:27:51 51°19.607 2°52.712 1.2 10 -0.1 99940 91
2009-02-03 08:27:57 51°19.626 2°52.723 1.3 10 -0.1 99940 91
2009-02-03 08:28:02 51°19.643 2°52.731 1.2 11 -0.1 99940 91
2009-02-03 08:28:07 51°19.66 2°52.74 1.3 13 -0.1 99940 91
2009-02-03 08:28:12 51°19.676 2°52.748 1.2 13 -0.1 99940 91
2009-02-03 08:28:17 51°19.693 2°52.757 0.9 1 -0.1 99940 91
2009-02-03 08:28:22 51°19.71 2°52.764 0.9 -999 -0.1 99940 92
2009-02-03 08:28:27 51°19.726 2°52.773 1.3 1 -0.1 99940 92
2009-02-03 08:28:32 51°19.743 2°52.78 0.7 2 -0.1 99940 91
2009-02-03 08:28:37 51°19.76 2°52.788 1 352 -0.1 99940 91
2009-02-03 08:28:42 51°19.777 2°52.796 0.9 352 -0.1 99940 91
2009-02-03 08:28:47 51°19.794 2°52.804 1.2 354 -0.1 99940 91
2009-02-03 08:28:52 51°19.811 2°52.812 1.5 356 -0.1 99940 91
2009-02-03 08:28:57 51°19.827 2°52.821 1.3 353 -0.1 99940 91
2009-02-03 08:29:02 51°19.844 2°52.829 1.7 280 -0.1 99930 90
2009-02-03 08:29:07 51°19.861 2°52.837 2.1 357 -0.1 99930 90
2009-02-03 08:29:12 51°19.878 2°52.845 1.6 351 -0.1 99940 92
2009-02-03 08:29:17 51°19.895 2°52.854 1.9 353 -0.1 99940 92
2009-02-03 08:29:22 51°19.912 2°52.862 1.4 356 -0.1 99940 91
2009-02-03 08:29:27 51°19.929 2°52.87 1.3 6 -0.1 99940 91
2009-02-03 08:29:32 51°19.946 2°52.878 1.2 360 -0.1 99930 91
2009-02-03 08:29:37 51°19.963 2°52.886 1.5 358 -0.1 99930 91
2009-02-03 08:29:42 51°19.979 2°52.894 1.6 2 -0.1 99940 92
2009-02-03 08:29:47 51°19.996 2°52.902 1.5 1 -0.1 99940 92
2009-02-03 08:29:52 51°20.013 2°52.91 1.4 352 -0.1 99940 91
2009-02-03 08:29:57 51°20.03 2°52.918 2.2 354 -0.1 99940 91
2009-02-03 08:30:02 51°20.047 2°52.927 2.2 348 -999 99940 91
2009-02-03 08:30:06 51°20.061 2°52.933 2.4 354 -999 99940 91
2009-02-03 08:30:12 51°20.081 2°52.942 1.7 -999 -999 99930 91
2009-02-03 08:30:17 51°20.098 2°52.95 1.5 -999 -999 99930 91
2009-02-03 08:30:22 51°20.115 2°52.958 2 358 -999 99940 91
2009-02-03 08:30:27 51°20.132 2°52.966 1.9 359 -999 99940 91
2009-02-03 08:30:32 51°20.15 2°52.973 1.8 12 -999 99940 91
2009-02-03 08:30:37 51°20.166 2°52.981 1.7 11 -999 99940 91
2009-02-03 08:30:42 51°20.184 2°52.988 1.6 23 -999 99940 91
2009-02-03 08:30:47 51°20.201 2°52.995 1.1 15 -999 99940 91
2009-02-03 08:30:52 51°20.218 2°53.003 1.1 21 -999 99940 91
2009-02-03 08:30:57 51°20.236 2°53.009 1.2 4 -999 99940 91
2009-02-03 08:31:02 51°20.253 2°53.016 1.1 25 -999 99940 92
2009-02-03 08:31:07 51°20.27 2°53.023 0.9 19 -999 99940 92
2009-02-03 08:31:11 51°20.284 2°53.029 1.1 10 -999 99940 91
2009-02-03 08:31:17 51°20.305 2°53.038 1.7 12 -999 99940 91
2009-02-03 08:31:22 51°20.322 2°53.046 0.9 10 -999 99940 91
2009-02-03 08:31:27 51°20.339 2°53.054 1 12 -999 99940 91
2009-02-03 08:31:32 51°20.356 2°53.062 1 7 -999 99940 92
2009-02-03 08:31:37 51°20.374 2°53.069 1.5 360 -999 99940 92
2009-02-03 08:31:42 51°20.391 2°53.076 1.6 356 -999 99930 91
2009-02-03 08:31:47 51°20.408 2°53.083 1.4 353 -999 99930 91
2009-02-03 08:31:52 51°20.425 2°53.091 1.3 356 -999 99940 91
2009-02-03 08:31:57 51°20.443 2°53.099 1.2 3 -999 99940 91
2009-02-03 08:32:02 51°20.46 2°53.107 0.9 3 -999 99940 91
2009-02-03 08:32:07 51°20.478 2°53.115 0.9 3 -999 99940 92
2009-02-03 08:32:12 51°20.495 2°53.123 0.9 1 -999 99940 92
2009-02-03 08:32:17 51°20.512 2°53.131 1 -999 -999 99940 92
2009-02-03 08:32:22 51°20.53 2°53.14 0.9 359 -999 99940 91
2009-02-03 08:32:26 51°20.544 2°53.146 1.3 2 -999 99940 91
2009-02-03 08:32:32 51°20.565 2°53.157 1.6 342 -0.1 99940 92
2009-02-03 08:32:37 51°20.582 2°53.166 2.6 352 -0.1 99940 92
2009-02-03 08:32:42 51°20.599 2°53.175 1.8 353 -999 99940 91
2009-02-03 08:32:47 51°20.617 2°53.184 1.7 350 -999 99940 91
2009-02-03 08:32:52 51°20.634 2°53.191 2.1 356 -999 99940 91
2009-02-03 08:32:57 51°20.652 2°53.199 1.2 353 -999 99940 91
2009-02-03 08:33:02 51°20.669 2°53.208 1.9 282 -999 99940 91
2009-02-03 08:33:07 51°20.686 2°53.215 1.4 346 -999 99940 91
2009-02-03 08:33:12 51°20.704 2°53.223 1.8 351 -999 99940 91
2009-02-03 08:33:17 51°20.721 2°53.23 1.6 346 -999 99940 91
2009-02-03 08:33:22 51°20.739 2°53.238 2 278 -999 99940 91
2009-02-03 08:33:26 51°20.753 2°53.244 2.2 347 -999 99940 91
2009-02-03 08:33:32 51°20.774 2°53.253 2.4 356 -999 99940 91
2009-02-03 08:33:37 51°20.792 2°53.262 2.6 349 -999 99940 91
2009-02-03 08:33:42 51°20.809 2°53.27 2.7 351 -0.1 99940 91
2009-02-03 08:33:47 51°20.826 2°53.279 2.4 357 -0.1 99940 91
2009-02-03 08:33:52 51°20.844 2°53.287 1.9 5 -0.1 99940 91
2009-02-03 08:33:57 51°20.862 2°53.297 2.4 1 -0.1 99940 91
2009-02-03 08:34:02 51°20.879 2°53.304 2.4 13 -999 99950 91
2009-02-03 08:34:07 51°20.897 2°53.312 2.2 11 -999 99950 91
2009-02-03 08:34:12 51°20.914 2°53.321 2.3 9 -999 99940 91
2009-02-03 08:34:17 51°20.932 2°53.328 2.2 11 -999 99940 91
2009-02-03 08:34:22 51°20.949 2°53.336 3.2 350 -999 99950 92
2009-02-03 08:34:26 51°20.963 2°53.343 3.1 351 -999 99950 92
2009-02-03 08:34:32 51°20.984 2°53.353 2.2 354 -999 99950 91
2009-02-03 08:34:37 51°21.001 2°53.361 2.6 356 -999 99950 91
2009-02-03 08:34:42 51°21.018 2°53.37 2.2 1 -999 99940 92
2009-02-03 08:34:47 51°21.035 2°53.378 2.2 7 -999 99940 92
2009-02-03 08:34:52 51°21.052 2°53.387 1.8 2 -999 99940 92
2009-02-03 08:34:57 51°21.069 2°53.395 2.2 3 -999 99940 92
2009-02-03 08:35:02 51°21.086 2°53.403 2.2 357 -999 99950 92
2009-02-03 08:35:07 51°21.103 2°53.412 2.4 354 -999 99950 92
2009-02-03 08:35:12 51°21.12 2°53.42 2 1 -999 99950 91
2009-02-03 08:35:17 51°21.137 2°53.429 2.4 1 -999 99950 91
2009-02-03 08:35:22 51°21.153 2°53.437 2.2 5 -999 99950 92
2009-02-03 08:35:27 51°21.17 2°53.445 2 9 -999 99950 92
2009-02-03 08:35:31 51°21.184 2°53.452 1.7 5 -999 99950 91
2009-02-03 08:35:37 51°21.204 2°53.462 1.9 1 -999 99950 91
2009-02-03 08:35:42 51°21.221 2°53.471 1.9 356 -999 99950 91
2009-02-03 08:35:47 51°21.237 2°53.479 2.1 351 -999 99950 91
2009-02-03 08:35:52 51°21.254 2°53.487 2.3 355 -999 99950 92
2009-02-03 08:35:57 51°21.271 2°53.496 3 358 -999 99950 92
2009-02-03 08:36:02 51°21.288 2°53.504 1.9 6 -999 99950 92
2009-02-03 08:36:07 51°21.304 2°53.512 2.5 360 -999 99950 92
2009-02-03 08:36:12 51°21.321 2°53.52 2.6 359 -999 99940 92
2009-02-03 08:36:17 51°21.337 2°53.529 2.4 3 -999 99940 92
2009-02-03 08:36:22 51°21.354 2°53.537 2 2 -999 99950 92
2009-02-03 08:36:27 51°21.371 2°53.546 2 357 -999 99950 92
2009-02-03 08:36:32 51°21.388 2°53.553 1.9 1 -999 99960 92
2009-02-03 08:36:37 51°21.404 2°53.562 1.7 6 -999 99960 92
2009-02-03 08:36:42 51°21.421 2°53.569 1.8 2 0.1 99950 92
2009-02-03 08:36:47 51°21.438 2°53.578 2.1 359 0.1 99950 92
2009-02-03 08:36:52 51°21.455 2°53.586 2 356 0.1 99950 92
2009-02-03 08:36:57 51°21.472 2°53.593 1.9 357 0.1 99950 92
2009-02-03 08:37:02 51°21.489 2°53.601 1.6 356 -999 99950 91
2009-02-03 08:37:07 51°21.505 2°53.608 1.6 358 -999 99950 91
2009-02-03 08:37:12 51°21.522 2°53.616 2.1 7 -999 99950 92
2009-02-03 08:37:17 51°21.538 2°53.626 2.9 6 -999 99950 92
2009-02-03 08:37:22 51°21.555 2°53.634 2.4 4 0.1 99950 91
2009-02-03 08:37:27 51°21.571 2°53.646 2.4 359 0.1 99950 91
2009-02-03 08:37:32 51°21.587 2°53.656 2.6 2 -999 99950 92
2009-02-03 08:37:37 51°21.603 2°53.667 3.3 360 -999 99950 92
2009-02-03 08:37:42 51°21.618 2°53.679 2.5 358 0.1 99950 92
2009-02-03 08:37:47 51°21.634 2°53.692 2.8 357 0.1 99950 92
2009-02-03 08:37:52 51°21.649 2°53.704 2.2 358 -999 99950 91
2009-02-03 08:37:57 51°21.665 2°53.717 2.5 352 -999 99950 91
2009-02-03 08:38:02 51°21.681 2°53.729 2.1 3 -999 99950 91
2009-02-03 08:38:07 51°21.696 2°53.742 2.1 3 -999 99950 91
2009-02-03 08:38:12 51°21.711 2°53.754 2.2 7 -999 99950 92
2009-02-03 08:38:17 51°21.727 2°53.767 2.2 4 -999 99950 92
2009-02-03 08:38:22 51°21.742 2°53.78 2.5 2 -999 99940 92
2009-02-03 08:38:27 51°21.757 2°53.792 2.6 357 -999 99940 92
2009-02-03 08:38:32 51°21.773 2°53.805 3.3 359 -999 99950 91
2009-02-03 08:38:37 51°21.788 2°53.818 2.8 2 -999 99950 91
2009-02-03 08:38:42 51°21.803 2°53.831 2.5 11 -999 99940 92
2009-02-03 08:38:47 51°21.819 2°53.843 2.6 12 -999 99940 92
2009-02-03 08:38:52 51°21.835 2°53.851 2.3 13 -999 99950 91
2009-02-03 08:38:57 51°21.851 2°53.861 2.2 9 -999 99950 91
2009-02-03 08:39:02 51°21.868 2°53.868 1.4 13 -999 99950 92
2009-02-03 08:39:06 51°21.881 2°53.874 1.3 355 -999 99950 92
2009-02-03 08:39:12 51°21.901 2°53.879 1.1 355 -999 99940 92
2009-02-03 08:39:17 51°21.918 2°53.884 1 352 -999 99940 92
2009-02-03 08:39:22 51°21.936 2°53.887 0.8 279 -999 99950 91
2009-02-03 08:39:27 51°21.953 2°53.89 0.7 338 -999 99950 91
2009-02-03 08:39:32 51°21.97 2°53.89 1 280 -999 99950 91
2009-02-03 08:39:37 51°21.988 2°53.891 0.8 315 -999 99950 91
2009-02-03 08:39:42 51°22.005 2°53.89 1.1 283 -999 99940 91
2009-02-03 08:39:47 51°22.023 2°53.889 1.2 31 -999 99940 91
2009-02-03 08:39:52 51°22.04 2°53.888 1.5 284 -999 99950 91
2009-02-03 08:39:57 51°22.057 2°53.886 2.1 37 -999 99950 91
2009-02-03 08:40:02 51°22.075 2°53.884 1.9 284 -999 99950 92
2009-02-03 08:40:07 51°22.092 2°53.883 1.9 37 -999 99950 92
2009-02-03 08:40:12 51°22.11 2°53.881 1.5 19 -999 99950 91
2009-02-03 08:40:17 51°22.127 2°53.879 2.1 35 -999 99950 91
2009-02-03 08:40:22 51°22.145 2°53.877 2.3 282 -999 99950 91
2009-02-03 08:40:27 51°22.162 2°53.875 2.2 32 -999 99950 91
2009-02-03 08:40:32 51°22.18 2°53.873 1.6 285 -999 99950 91
2009-02-03 08:40:37 51°22.197 2°53.871 1.7 31 -999 99950 91
2009-02-03 08:40:42 51°22.214 2°53.868 2.4 282 -999 99940 91
2009-02-03 08:40:47 51°22.232 2°53.867 1.8 30 -999 99940 91
2009-02-03 08:40:52 51°22.249 2°53.865 1.3 280 -999 99950 91
2009-02-03 08:40:57 51°22.267 2°53.864 2 245 -999 99950 91
2009-02-03 08:41:02 51°22.284 2°53.862 1.3 282 -999 99940 91
2009-02-03 08:41:06 51°22.298 2°53.861 1.1 246 -999 99950 91
2009-02-03 08:41:12 51°22.319 2°53.859 1.2 24 -999 99950 91
2009-02-03 08:41:18 51°22.34 2°53.857 1 241 -999 99950 91
2009-02-03 08:41:22 51°22.353 2°53.856 1.3 283 -999 99950 91
2009-02-03 08:41:27 51°22.371 2°53.856 1.5 320 -999 99950 91
2009-02-03 08:41:32 51°22.389 2°53.855 1.6 287 -999 99950 91
2009-02-03 08:41:37 51°22.406 2°53.854 1.7 319 -999 99950 91
2009-02-03 08:41:42 51°22.424 2°53.854 1 283 -999 99940 91
2009-02-03 08:41:47 51°22.441 2°53.854 1.3 36 -999 99940 91
2009-02-03 08:41:52 51°22.459 2°53.853 1.9 282 -999 99940 91
2009-02-03 08:41:57 51°22.476 2°53.853 2 30 -999 99940 91
2009-02-03 08:42:02 51°22.494 2°53.852 1.3 283 -999 99940 91
2009-02-03 08:42:07 51°22.512 2°53.851 1.5 242 -999 99940 91
2009-02-03 08:42:11 51°22.526 2°53.851 2 19 0.1 99940 91
2009-02-03 08:42:17 51°22.547 2°53.851 2.4 242 0.1 99940 91
2009-02-03 08:42:22 51°22.565 2°53.85 1.9 281 0.1 99950 92
2009-02-03 08:42:27 51°22.583 2°53.85 2.1 240 0.1 99950 92
2009-02-03 08:42:32 51°22.6 2°53.849 2.6 280 0.1 99950 91
2009-02-03 08:42:37 51°22.618 2°53.849 2.5 32 0.1 99950 91
2009-02-03 08:42:42 51°22.636 2°53.848 1.5 283 0.1 99940 91
2009-02-03 08:42:47 51°22.654 2°53.848 1.6 30 0.1 99940 91
2009-02-03 08:42:52 51°22.672 2°53.849 2.3 287 0.1 99940 92
2009-02-03 08:42:57 51°22.69 2°53.849 2.2 36 0.1 99940 92
2009-02-03 08:43:02 51°22.708 2°53.85 2.8 284 0.1 99940 92
2009-02-03 08:43:07 51°22.725 2°53.851 2.3 320 0.1 99940 92
2009-02-03 08:43:12 51°22.743 2°53.853 1.8 26 0.1 99950 92
2009-02-03 08:43:17 51°22.761 2°53.855 1.9 38 0.1 99950 92
2009-02-03 08:43:22 51°22.779 2°53.857 1.8 281 0.1 99950 91
2009-02-03 08:43:27 51°22.797 2°53.859 1.5 234 0.1 99950 91
2009-02-03 08:43:31 51°22.812 2°53.861 1.4 280 0.1 99940 91
2009-02-03 08:43:37 51°22.833 2°53.864 1.8 238 0.1 99940 91
2009-02-03 08:43:42 51°22.851 2°53.866 1 280 0.1 99940 91
2009-02-03 08:43:47 51°22.869 2°53.868 1.5 246 0.1 99940 91
2009-02-03 08:43:52 51°22.887 2°53.87 1.4 287 0.1 99930 92
2009-02-03 08:43:57 51°22.905 2°53.873 1.3 322 0.1 99930 92
2009-02-03 08:44:02 51°22.923 2°53.875 1.4 287 0.1 99930 92
2009-02-03 08:44:07 51°22.941 2°53.879 1.8 324 0.1 99930 92
2009-02-03 08:44:12 51°22.958 2°53.881 1.4 -999 0.1 99930 92
2009-02-03 08:44:18 51°22.98 2°53.884 1.5 318 0.1 99930 92
2009-02-03 08:44:22 51°22.994 2°53.885 1.5 282 0.1 99930 92
2009-02-03 08:44:27 51°23.012 2°53.888 1.7 323 0.1 99930 92
2009-02-03 08:44:32 51°23.03 2°53.89 2 284 0.1 99940 92
2009-02-03 08:44:38 51°23.051 2°53.894 1 33 0.1 99940 92
2009-02-03 08:44:42 51°23.065 2°53.894 1 280 0.1 99940 92
2009-02-03 08:44:47 51°23.083 2°53.897 0.9 31 0.1 99940 92
2009-02-03 08:44:52 51°23.101 2°53.898 1 282 0.2 99940 92
2009-02-03 08:44:58 51°23.123 2°53.901 1.4 326 0.2 99940 92
2009-02-03 08:45:02 51°23.137 2°53.903 1.2 278 0.2 99940 92
2009-02-03 08:45:07 51°23.154 2°53.905 1.3 30 0.2 99940 92
2009-02-03 08:45:12 51°23.172 2°53.907 1 -999 0.2 99940 92
2009-02-03 08:45:17 51°23.19 2°53.909 0.7 241 0.2 99940 92
2009-02-03 08:45:22 51°23.208 2°53.912 0.6 283 0.2 99930 92
2009-02-03 08:45:27 51°23.226 2°53.913 0.7 242 0.2 99930 92
2009-02-03 08:45:32 51°23.244 2°53.915 0.5 281 0.2 99940 92
2009-02-03 08:45:38 51°23.265 2°53.918 0.7 34 0.2 99940 92
2009-02-03 08:45:42 51°23.28 2°53.92 0.5 279 0.2 99930 92
2009-02-03 08:45:47 51°23.298 2°53.922 0.8 36 0.2 99930 92
2009-02-03 08:45:52 51°23.315 2°53.924 0.6 283 0.2 99940 92
2009-02-03 08:45:58 51°23.337 2°53.927 0.5 35 0.2 99940 92
2009-02-03 08:46:02 51°23.351 2°53.928 0.6 284 0.2 99930 92
2009-02-03 08:46:06 51°23.365 2°53.93 0.7 35 0.2 99930 92
2009-02-03 08:46:12 51°23.387 2°53.932 0.9 24 0.2 99940 92
2009-02-03 08:46:18 51°23.408 2°53.934 0.6 32 0.2 99940 92
2009-02-03 08:46:22 51°23.422 2°53.934 0.6 284 0.2 99940 92
2009-02-03 08:46:27 51°23.44 2°53.937 0.4 35 0.2 99940 92
2009-02-03 08:46:32 51°23.457 2°53.938 0.5 286 0.2 99940 93
2009-02-03 08:46:37 51°23.475 2°53.941 0.4 322 0.2 99940 93
2009-02-03 08:46:42 51°23.493 2°53.942 0.6 284 0.2 99940 92
2009-02-03 08:46:47 51°23.51 2°53.945 0.4 325 0.2 99940 92
2009-02-03 08:46:52 51°23.528 2°53.946 0.4 286 0.2 99930 92
2009-02-03 08:46:57 51°23.546 2°53.949 0.3 324 0.2 99930 92
2009-02-03 08:47:02 51°23.564 2°53.951 0.3 279 0.2 99940 92
2009-02-03 08:47:07 51°23.581 2°53.954 0.3 326 0.2 99940 92
2009-02-03 08:47:12 51°23.599 2°53.957 0.3 326 0.2 99940 92
2009-02-03 08:47:17 51°23.617 2°53.96 0.5 2 0.2 99940 92
2009-02-03 08:47:22 51°23.634 2°53.963 0.5 350 0.2 99940 92
2009-02-03 08:47:26 51°23.648 2°53.966 0.3 348 0.2 99940 92
2009-02-03 08:47:32 51°23.67 2°53.969 0.4 279 0.2 99940 92
2009-02-03 08:47:37 51°23.687 2°53.972 0.1 336 0.2 99940 92
2009-02-03 08:47:42 51°23.705 2°53.975 0.1 287 0.2 99940 92
2009-02-03 08:47:47 51°23.723 2°53.979 0.2 354 0.2 99940 92
2009-02-03 08:47:52 51°23.74 2°53.981 0.5 286 0.2 99940 92
2009-02-03 08:47:57 51°23.758 2°53.985 0.6 343 0.2 99940 92
2009-02-03 08:48:02 51°23.776 2°53.988 0.5 281 0.3 99940 92
2009-02-03 08:48:07 51°23.793 2°53.992 0.7 346 0.2 99930 92
2009-02-03 08:48:12 51°23.811 2°53.996 0.7 -999 0.2 99930 92
2009-02-03 08:48:17 51°23.828 2°53.999 0.7 348 0.2 99930 92
2009-02-03 08:48:22 51°23.846 2°54.003 0.7 281 0.2 99940 92
2009-02-03 08:48:27 51°23.864 2°54.006 0.6 343 0.2 99940 92
2009-02-03 08:48:31 51°23.878 2°54.008 0.9 286 0.2 99940 92
2009-02-03 08:48:37 51°23.899 2°54.011 0.8 342 0.2 99940 92
2009-02-03 08:48:42 51°23.917 2°54.013 0.6 282 0.2 99940 92
2009-02-03 08:48:47 51°23.934 2°54.017 0.6 348 0.2 99940 92
2009-02-03 08:48:52 51°23.952 2°54.02 0.4 350 0.2 99940 92
2009-02-03 08:48:57 51°23.97 2°54.023 0.7 344 0.2 99940 92
2009-02-03 08:49:02 51°23.987 2°54.026 0.8 345 0.2 99940 91
2009-02-03 08:49:07 51°24.005 2°54.029 1 337 0.2 99940 91
2009-02-03 08:49:12 51°24.023 2°54.031 1 333 0.2 99940 92
2009-02-03 08:49:17 51°24.04 2°54.034 0.8 333 0.2 99940 92
2009-02-03 08:49:22 51°24.058 2°54.035 1 279 0.2 99940 92
2009-02-03 08:49:27 51°24.075 2°54.038 0.8 334 0.2 99940 92
2009-02-03 08:49:32 51°24.093 2°54.039 0.6 280 0.2 99940 91
2009-02-03 08:49:37 51°24.11 2°54.042 0.7 338 0.2 99940 91
2009-02-03 08:49:42 51°24.128 2°54.044 0.6 282 0.2 99940 92
2009-02-03 08:49:47 51°24.145 2°54.046 0.8 337 0.2 99940 92
2009-02-03 08:49:52 51°24.163 2°54.048 0.8 282 0.2 99940 92
2009-02-03 08:49:57 51°24.181 2°54.05 1.2 339 0.2 99940 92
2009-02-03 08:50:02 51°24.198 2°54.053 1.3 283 0.1 99940 92
2009-02-03 08:50:07 51°24.216 2°54.057 1.2 341 0.1 99940 92
2009-02-03 08:50:12 51°24.233 2°54.059 1 341 0.1 99940 92
2009-02-03 08:50:17 51°24.251 2°54.062 0.7 344 0.1 99940 92
2009-02-03 08:50:22 51°24.268 2°54.065 0.9 347 0.1 99940 92
2009-02-03 08:50:27 51°24.286 2°54.069 0.9 325 0.1 99940 92
2009-02-03 08:50:32 51°24.303 2°54.072 1.2 282 0.1 99940 92
2009-02-03 08:50:37 51°24.321 2°54.076 0.8 339 0.1 99940 92
2009-02-03 08:50:42 51°24.338 2°54.079 0.9 347 0.1 99940 92
2009-02-03 08:50:46 51°24.352 2°54.082 0.9 343 0.1 99940 92
2009-02-03 08:50:52 51°24.374 2°54.086 0.8 286 0.1 99930 92
2009-02-03 08:50:57 51°24.391 2°54.088 1 348 0.1 99930 92
2009-02-03 08:51:02 51°24.408 2°54.093 0.9 287 0.1 99940 92
2009-02-03 08:51:07 51°24.426 2°54.095 0.9 338 0.1 99940 92
2009-02-03 08:51:12 51°24.444 2°54.098 0.9 337 0.1 99940 92
2009-02-03 08:51:17 51°24.461 2°54.102 0.7 333 0.1 99940 92
2009-02-03 08:51:22 51°24.479 2°54.105 0.4 279 0.1 99950 92
2009-02-03 08:51:27 51°24.496 2°54.108 0.4 332 0.1 99950 92
2009-02-03 08:51:32 51°24.514 2°54.111 0.5 283 0.1 99940 92
2009-02-03 08:51:37 51°24.532 2°54.114 0.6 331 0.1 99940 92
2009-02-03 08:51:42 51°24.549 2°54.117 0.5 284 0.1 99950 92
2009-02-03 08:51:47 51°24.567 2°54.119 0.5 336 0.1 99950 92
2009-02-03 08:51:51 51°24.581 2°54.122 0.6 282 0.1 99940 92
2009-02-03 08:51:57 51°24.602 2°54.125 0.6 324 0.1 99940 92
2009-02-03 08:52:02 51°24.62 2°54.128 0.8 287 0.1 99940 92
2009-02-03 08:52:07 51°24.637 2°54.129 0.6 321 0.1 99940 92
2009-02-03 08:52:12 51°24.655 2°54.132 0.5 321 0.1 99940 92
2009-02-03 08:52:17 51°24.673 2°54.133 0.8 318 0.1 99940 92
2009-02-03 08:52:22 51°24.69 2°54.135 0.8 282 0.1 99940 91
2009-02-03 08:52:27 51°24.708 2°54.137 0.7 323 0.1 99940 91
2009-02-03 08:52:32 51°24.725 2°54.139 0.6 282 0.1 99940 92
2009-02-03 08:52:37 51°24.743 2°54.141 0.9 323 0.1 99940 92
2009-02-03 08:52:42 51°24.76 2°54.143 0.5 282 0.1 99940 92
2009-02-03 08:52:47 51°24.778 2°54.144 0.6 323 0.1 99940 92
2009-02-03 08:52:52 51°24.795 2°54.146 0.7 281 0.1 99940 92
2009-02-03 08:52:58 51°24.817 2°54.148 1 328 0.1 99940 92
2009-02-03 08:53:02 51°24.831 2°54.15 0.9 284 0.1 99940 92
2009-02-03 08:53:07 51°24.848 2°54.152 1 322 0.1 99940 92
2009-02-03 08:53:12 51°24.866 2°54.154 1.1 329 0.1 99940 92
2009-02-03 08:53:18 51°24.887 2°54.156 0.8 335 0.1 99940 92
2009-02-03 08:53:22 51°24.901 2°54.159 1 284 0.1 99950 92
2009-02-03 08:53:27 51°24.919 2°54.161 1.1 320 0.1 99950 92
2009-02-03 08:53:32 51°24.937 2°54.163 1.2 282 0.1 99940 91
2009-02-03 08:53:38 51°24.958 2°54.166 0.8 30 0.1 99940 91
2009-02-03 08:53:42 51°24.972 2°54.169 1 286 0.1 99940 92
2009-02-03 08:53:47 51°24.99 2°54.172 1.3 323 0.1 99940 92
2009-02-03 08:53:52 51°25.007 2°54.175 1.1 279 0.2 99940 92
2009-02-03 08:53:58 51°25.029 2°54.178 0.9 320 0.2 99940 92
2009-02-03 08:54:02 51°25.043 2°54.18 0.8 282 0.2 99940 91
2009-02-03 08:54:07 51°25.061 2°54.183 0.8 326 0.2 99940 91
2009-02-03 08:54:12 51°25.078 2°54.186 1.3 327 0.2 99940 92
2009-02-03 08:54:18 51°25.1 2°54.191 0.8 337 0.2 99940 92
2009-02-03 08:54:22 51°25.114 2°54.193 0.7 286 0.2 99940 92
2009-02-03 08:54:26 51°25.128 2°54.196 0.7 323 0.2 99940 92
2009-02-03 08:54:32 51°25.149 2°54.2 0.8 279 0.2 99940 92
2009-02-03 08:54:38 51°25.171 2°54.204 0.8 321 0.2 99940 92
2009-02-03 08:54:42 51°25.185 2°54.206 0.8 287 0.2 99940 92
2009-02-03 08:54:47 51°25.203 2°54.209 0.9 316 0.2 99940 92
2009-02-03 08:54:52 51°25.221 2°54.211 0.8 287 0.2 99940 91
2009-02-03 08:54:57 51°25.238 2°54.214 0.6 31 0.2 99940 91
2009-02-03 08:55:02 51°25.256 2°54.216 0.6 282 0.2 99950 92
2009-02-03 08:55:07 51°25.274 2°54.22 0.6 35 0.2 99950 92
2009-02-03 08:55:12 51°25.291 2°54.222 0.7 23 0.2 99940 92
2009-02-03 08:55:17 51°25.309 2°54.225 0.6 30 0.2 99940 92
2009-02-03 08:55:22 51°25.326 2°54.228 0.6 281 0.2 99940 92
2009-02-03 08:55:27 51°25.344 2°54.23 0.5 37 0.2 99940 92
2009-02-03 08:55:32 51°25.362 2°54.233 0.4 279 0.2 99940 92
2009-02-03 08:55:37 51°25.379 2°54.236 0.3 36 0.2 99940 92
2009-02-03 08:55:42 51°25.397 2°54.24 0.2 283 0.2 99940 92
2009-02-03 08:55:46 51°25.411 2°54.242 0.3 316 0.2 99940 92
2009-02-03 08:55:52 51°25.431 2°54.246 0.3 287 0.2 99940 92
2009-02-03 08:55:57 51°25.449 2°54.25 0.2 318 0.2 99940 92
2009-02-03 08:56:02 51°25.466 2°54.253 0.3 282 0.3 99950 92
2009-02-03 08:56:07 51°25.484 2°54.257 0.5 319 0.3 99950 92
2009-02-03 08:56:12 51°25.501 2°54.26 0.5 319 0.2 99940 92
2009-02-03 08:56:17 51°25.519 2°54.263 0.2 321 0.2 99940 92
2009-02-03 08:56:22 51°25.536 2°54.267 0.5 283 0.3 99940 92
2009-02-03 08:56:27 51°25.553 2°54.27 0.4 323 0.3 99940 92
2009-02-03 08:56:32 51°25.571 2°54.273 0.5 282 0.3 99940 92
2009-02-03 08:56:37 51°25.588 2°54.276 0.5 323 0.3 99940 92
2009-02-03 08:56:42 51°25.606 2°54.279 0.6 284 0.3 99940 92
2009-02-03 08:56:46 51°25.62 2°54.28 0.7 323 0.3 99940 92
2009-02-03 08:56:52 51°25.641 2°54.284 0.4 279 0.3 99940 92
2009-02-03 08:56:57 51°25.658 2°54.287 0.5 322 0.3 99940 92
2009-02-03 08:57:02 51°25.676 2°54.29 0.5 280 0.3 99930 92
2009-02-03 08:57:07 51°25.693 2°54.293 0.4 322 0.3 99930 92
2009-02-03 08:57:12 51°25.711 2°54.295 0.5 322 0.3 99940 92
2009-02-03 08:57:17 51°25.728 2°54.298 0.4 323 0.3 99940 92
2009-02-03 08:57:22 51°25.746 2°54.3 0.5 282 0.3 99940 92
2009-02-03 08:57:27 51°25.764 2°54.302 0.6 319 0.3 99940 92
2009-02-03 08:57:32 51°25.782 2°54.304 0.7 284 0.3 99940 92
2009-02-03 08:57:37 51°25.799 2°54.307 0.4 318 0.3 99940 92
2009-02-03 08:57:42 51°25.817 2°54.309 0.4 282 0.3 99940 92
2009-02-03 08:57:47 51°25.835 2°54.312 0.5 317 0.3 99940 92
2009-02-03 08:57:51 51°25.849 2°54.315 0.5 283 0.3 99940 92
2009-02-03 08:57:57 51°25.87 2°54.317 0.5 31 0.3 99940 92
2009-02-03 08:58:02 51°25.888 2°54.321 0.3 283 0.3 99940 92
2009-02-03 08:58:07 51°25.906 2°54.323 0.3 31 0.3 99940 92
2009-02-03 08:58:12 51°25.923 2°54.327 0.3 26 0.3 99940 92
2009-02-03 08:58:17 51°25.941 2°54.33 0.3 31 0.3 99940 92
2009-02-03 08:58:22 51°25.959 2°54.333 0.3 279 0.3 99940 92
2009-02-03 08:58:27 51°25.977 2°54.337 0.3 320 0.3 99940 92
2009-02-03 08:58:32 51°25.994 2°54.34 0.2 283 0.3 99940 92
2009-02-03 08:58:37 51°26.012 2°54.344 0.1 34 0.3 99940 92
2009-02-03 08:58:42 51°26.029 2°54.346 -999 283 0.3 99940 92
2009-02-03 08:58:47 51°26.047 2°54.349 -999 34 0.3 99940 92
2009-02-03 08:58:52 51°26.064 2°54.352 0.1 283 0.3 99940 92
2009-02-03 08:58:57 51°26.082 2°54.355 0.1 34 0.3 99940 92
2009-02-03 08:59:02 51°26.1 2°54.358 -999 283 0.3 99940 92
2009-02-03 08:59:06 51°26.114 2°54.36 -999 34 0.3 99940 92
2009-02-03 08:59:12 51°26.135 2°54.364 -999 23 0.3 99940 92
2009-02-03 08:59:17 51°26.153 2°54.367 -999 34 0.3 99940 92
2009-02-03 08:59:22 51°26.17 2°54.37 -999 283 0.4 99930 92
2009-02-03 08:59:27 51°26.188 2°54.373 -999 34 0.4 99930 92
2009-02-03 08:59:32 51°26.205 2°54.376 -999 283 0.4 99940 92
2009-02-03 08:59:37 51°26.223 2°54.379 0.1 316 0.4 99940 92
2009-02-03 08:59:42 51°26.241 2°54.382 0.1 279 0.4 99940 92
2009-02-03 08:59:47 51°26.258 2°54.385 0.1 342 0.4 99940 92
2009-02-03 08:59:52 51°26.276 2°54.388 0.7 284 0.4 99940 92
2009-02-03 08:59:57 51°26.293 2°54.391 0.5 339 0.4 99940 92
2009-02-03 09:00:02 51°26.311 2°54.393 0.7 284 0.4 99930 92
2009-02-03 09:00:07 51°26.328 2°54.396 0.6 337 0.4 99930 92
2009-02-03 09:00:11 51°26.342 2°54.398 0.6 332 0.4 99930 92
2009-02-03 09:00:17 51°26.363 2°54.402 1.3 318 0.4 99930 92
2009-02-03 09:00:22 51°26.381 2°54.403 1.1 286 0.4 99930 92
2009-02-03 09:00:27 51°26.399 2°54.406 0.8 326 0.4 99930 92
2009-02-03 09:00:32 51°26.416 2°54.408 0.6 284 0.4 99940 92
2009-02-03 09:00:37 51°26.434 2°54.411 1.2 323 0.4 99940 92
2009-02-03 09:00:42 51°26.451 2°54.413 1.5 287 0.4 99940 93
2009-02-03 09:00:47 51°26.469 2°54.415 1.2 326 0.4 99940 93
2009-02-03 09:00:52 51°26.486 2°54.418 1.1 284 0.4 99930 92
2009-02-03 09:00:57 51°26.504 2°54.42 0.7 34 0.4 99930 92
2009-02-03 09:01:02 51°26.521 2°54.423 0.5 282 0.4 99940 93
2009-02-03 09:01:07 51°26.539 2°54.425 0.6 335 0.4 99940 93
2009-02-03 09:01:12 51°26.556 2°54.428 1.1 360 0.5 99940 92
2009-02-03 09:01:17 51°26.574 2°54.43 0.6 2 0.5 99940 92
2009-02-03 09:01:22 51°26.591 2°54.433 0.7 283 0.5 99930 92
2009-02-03 09:01:27 51°26.609 2°54.435 0.8 344 0.5 99930 92
2009-02-03 09:01:32 51°26.626 2°54.437 0.8 280 0.5 99930 93
2009-02-03 09:01:37 51°26.644 2°54.44 0.7 330 0.5 99930 93
2009-02-03 09:01:42 51°26.661 2°54.442 0.5 279 0.5 99930 92
2009-02-03 09:01:47 51°26.679 2°54.444 0.8 323 0.5 99930 92
2009-02-03 09:01:52 51°26.697 2°54.447 0.7 282 0.5 99930 92
2009-02-03 09:01:57 51°26.714 2°54.448 0.8 335 0.5 99930 92
2009-02-03 09:02:02 51°26.732 2°54.452 0.5 279 0.5 99930 93
2009-02-03 09:02:07 51°26.75 2°54.454 1 324 0.5 99930 93
2009-02-03 09:02:12 51°26.768 2°54.458 0.8 325 0.5 99930 93
2009-02-03 09:02:17 51°26.785 2°54.46 0.8 323 0.5 99930 93
2009-02-03 09:02:22 51°26.803 2°54.464 0.4 282 0.5 99930 92
2009-02-03 09:02:26 51°26.817 2°54.465 0.6 331 0.5 99930 92
2009-02-03 09:02:32 51°26.839 2°54.468 0.8 285 0.6 99930 92
2009-02-03 09:02:37 51°26.856 2°54.471 0.8 318 0.6 99930 92
2009-02-03 09:02:42 51°26.874 2°54.473 0.6 282 0.6 99930 93
2009-02-03 09:02:47 51°26.892 2°54.476 0.4 340 0.6 99930 93
2009-02-03 09:02:52 51°26.91 2°54.479 0.2 282 0.6 99930 93
2009-02-03 09:02:57 51°26.928 2°54.48 0.1 335 0.6 99930 93
2009-02-03 09:03:02 51°26.946 2°54.483 0.2 283 0.6 99930 93
2009-02-03 09:03:07 51°26.964 2°54.485 0.3 322 0.6 99930 93
2009-02-03 09:03:12 51°26.982 2°54.488 0.3 320 0.6 99930 93
2009-02-03 09:03:17 51°27 2°54.489 0.3 319 0.6 99930 93
2009-02-03 09:03:22 51°27.017 2°54.492 0.2 283 0.6 99930 93
2009-02-03 09:03:27 51°27.035 2°54.494 0.2 320 0.6 99930 93
2009-02-03 09:03:31 51°27.049 2°54.497 0.1 282 0.6 99940 93
2009-02-03 09:03:37 51°27.071 2°54.499 0.1 323 0.6 99940 93
2009-02-03 09:03:42 51°27.089 2°54.502 0.2 282 0.6 99940 93
2009-02-03 09:03:47 51°27.106 2°54.505 0.4 334 0.6 99940 93
2009-02-03 09:03:52 51°27.124 2°54.508 0.5 283 0.6 99930 93
2009-02-03 09:03:57 51°27.142 2°54.511 0.5 336 0.6 99930 93
2009-02-03 09:04:02 51°27.16 2°54.514 0.2 283 0.6 99930 93
2009-02-03 09:04:07 51°27.178 2°54.517 0.1 342 0.6 99930 93
2009-02-03 09:04:12 51°27.196 2°54.52 0.1 342 0.6 99930 93
2009-02-03 09:04:17 51°27.214 2°54.523 0.1 344 0.6 99930 93
2009-02-03 09:04:22 51°27.232 2°54.526 0.2 283 0.6 99940 92
2009-02-03 09:04:27 51°27.249 2°54.529 0.1 329 0.6 99940 92
2009-02-03 09:04:32 51°27.267 2°54.531 0.2 279 0.6 99930 92
2009-02-03 09:04:37 51°27.285 2°54.533 0.3 330 0.6 99930 92
2009-02-03 09:04:42 51°27.303 2°54.536 0.2 287 0.6 99930 92
2009-02-03 09:04:47 51°27.321 2°54.538 0.2 245 0.6 99930 92
2009-02-03 09:04:52 51°27.339 2°54.54 0.3 287 0.6 99930 92
2009-02-03 09:04:57 51°27.357 2°54.542 0.2 248 0.6 99930 92
2009-02-03 09:05:02 51°27.375 2°54.544 0.1 287 0.6 99930 93
2009-02-03 09:05:07 51°27.393 2°54.546 0.1 248 0.6 99930 93
2009-02-03 09:05:12 51°27.411 2°54.548 0.1 22 0.6 99930 92
2009-02-03 09:05:17 51°27.43 2°54.55 0.1 36 0.6 99930 92
2009-02-03 09:05:22 51°27.448 2°54.552 0.5 283 0.6 99920 92
2009-02-03 09:05:27 51°27.466 2°54.555 0.5 35 0.6 99920 92
2009-02-03 09:05:32 51°27.484 2°54.557 0.7 287 0.6 99930 92
2009-02-03 09:05:37 51°27.502 2°54.559 0.9 327 0.6 99930 92
2009-02-03 09:05:42 51°27.52 2°54.561 0.7 283 0.6 99930 92
2009-02-03 09:05:46 51°27.535 2°54.563 1 320 0.6 99930 92
2009-02-03 09:05:52 51°27.556 2°54.564 1.2 282 0.6 99930 92
2009-02-03 09:05:57 51°27.574 2°54.567 1.6 315 0.6 99930 92
2009-02-03 09:06:02 51°27.592 2°54.568 1.3 283 0.6 99930 93
2009-02-03 09:06:07 51°27.61 2°54.571 1.4 37 0.6 99930 93
2009-02-03 09:06:12 51°27.629 2°54.573 1.6 22 0.6 99930 92
2009-02-03 09:06:17 51°27.647 2°54.575 1.4 29 0.6 99930 92
2009-02-03 09:06:22 51°27.665 2°54.577 2 280 0.7 99930 92
2009-02-03 09:06:27 51°27.683 2°54.579 2.5 30 0.7 99930 92
2009-02-03 09:06:32 51°27.701 2°54.581 2.2 281 0.7 99930 93
2009-02-03 09:06:37 51°27.719 2°54.582 1.6 243 0.7 99930 93
2009-02-03 09:06:42 51°27.737 2°54.583 2.2 281 0.7 99930 92
2009-02-03 09:06:47 51°27.755 2°54.585 2.6 245 0.7 99930 92
2009-02-03 09:06:51 51°27.769 2°54.585 2.7 282 0.7 99920 93
2009-02-03 09:06:57 51°27.791 2°54.587 2.2 245 0.7 99920 93
2009-02-03 09:07:02 51°27.809 2°54.588 2.4 282 0.7 99930 93
2009-02-03 09:07:07 51°27.827 2°54.589 2 248 0.7 99930 93
2009-02-03 09:07:12 51°27.845 2°54.589 2.2 246 0.7 99920 92
2009-02-03 09:07:17 51°27.863 2°54.59 1.8 243 0.7 99920 92
2009-02-03 09:07:22 51°27.881 2°54.59 2.2 287 0.7 99920 92
2009-02-03 09:07:27 51°27.899 2°54.591 1.9 261 0.7 99920 92
2009-02-03 09:07:32 51°27.917 2°54.593 1.6 283 0.7 99920 92
2009-02-03 09:07:37 51°27.935 2°54.595 1.5 255 0.7 99920 92
2009-02-03 09:07:42 51°27.953 2°54.598 0.9 287 0.7 99920 93
2009-02-03 09:07:47 51°27.971 2°54.601 0.9 247 0.7 99920 93
2009-02-03 09:07:52 51°27.988 2°54.604 1.3 285 0.8 99930 92
2009-02-03 09:07:57 51°28.006 2°54.608 1.2 253 0.8 99930 92
2009-02-03 09:08:02 51°28.023 2°54.612 0.6 282 0.8 99920 92
2009-02-03 09:08:07 51°28.041 2°54.615 1.3 251 0.8 99920 92
2009-02-03 09:08:12 51°28.058 2°54.62 0.9 248 0.8 99930 93
2009-02-03 09:08:17 51°28.076 2°54.623 0.7 253 0.8 99930 93
2009-02-03 09:08:22 51°28.093 2°54.629 0.3 283 0.8 99920 93
2009-02-03 09:08:27 51°28.11 2°54.632 0.5 263 0.8 99920 93
2009-02-03 09:08:32 51°28.128 2°54.637 0.7 287 0.8 99920 93
2009-02-03 09:08:37 51°28.145 2°54.641 0.5 267 0.8 99920 93
2009-02-03 09:08:42 51°28.162 2°54.646 0.7 282 0.8 99920 93
2009-02-03 09:08:47 51°28.18 2°54.65 0.6 34 0.8 99920 93
2009-02-03 09:08:52 51°28.197 2°54.655 0.6 74 0.8 99930 93
2009-02-03 09:08:57 51°28.214 2°54.659 0.4 252 0.8 99930 93
2009-02-03 09:09:02 51°28.232 2°54.664 0.7 284 0.8 99920 93
2009-02-03 09:09:06 51°28.246 2°54.667 0.7 239 0.8 99920 93
2009-02-03 09:09:12 51°28.267 2°54.672 0.6 27 0.8 99920 93
2009-02-03 09:09:17 51°28.284 2°54.677 0.4 239 0.8 99920 93
2009-02-03 09:09:22 51°28.302 2°54.681 0.3 287 0.8 99920 93
2009-02-03 09:09:27 51°28.32 2°54.684 0.5 238 0.8 99920 93
2009-02-03 09:09:32 51°28.337 2°54.689 0.8 280 0.8 99920 93
2009-02-03 09:09:37 51°28.355 2°54.692 0.7 33 0.8 99920 93
2009-02-03 09:09:42 51°28.372 2°54.696 0.8 287 0.8 99920 93
2009-02-03 09:09:47 51°28.39 2°54.699 1.4 250 0.8 99920 93
2009-02-03 09:09:52 51°28.408 2°54.704 1.2 283 0.8 99930 93
2009-02-03 09:09:57 51°28.425 2°54.707 0.7 30 0.8 99930 93
2009-02-03 09:10:02 51°28.443 2°54.711 0.7 283 0.8 99920 93
2009-02-03 09:10:07 51°28.461 2°54.715 0.5 265 0.8 99920 93
2009-02-03 09:10:11 51°28.475 2°54.719 0.4 265 0.8 99930 92
2009-02-03 09:10:17 51°28.497 2°54.723 0.5 266 0.8 99930 92
2009-02-03 09:10:22 51°28.514 2°54.728 0.9 283 0.8 99920 92
2009-02-03 09:10:27 51°28.532 2°54.731 0.9 262 0.8 99920 92
2009-02-03 09:10:32 51°28.55 2°54.736 0.9 279 0.8 99930 93
2009-02-03 09:10:37 51°28.568 2°54.74 0.5 264 0.8 99930 93
2009-02-03 09:10:42 51°28.585 2°54.746 0.8 287 0.8 99930 93
2009-02-03 09:10:47 51°28.603 2°54.749 0.7 255 0.8 99930 93
2009-02-03 09:10:52 51°28.621 2°54.754 0.5 286 0.8 99920 93
2009-02-03 09:10:57 51°28.639 2°54.757 0.7 246 0.8 99920 93
2009-02-03 09:11:02 51°28.657 2°54.762 0.6 281 0.8 99930 92
2009-02-03 09:11:07 51°28.674 2°54.766 0.6 242 0.8 99930 92
2009-02-03 09:11:12 51°28.692 2°54.771 0.6 18 0.8 99940 93
2009-02-03 09:11:17 51°28.71 2°54.774 1.3 32 0.8 99940 93
2009-02-03 09:11:22 51°28.727 2°54.779 1.6 285 0.8 99930 93
2009-02-03 09:11:27 51°28.745 2°54.783 2.2 35 0.8 99930 93
2009-02-03 09:11:32 51°28.763 2°54.787 1.1 283 0.8 99930 93
2009-02-03 09:11:37 51°28.781 2°54.791 0.9 37 0.8 99930 93
2009-02-03 09:11:42 51°28.798 2°54.795 1.3 287 0.8 99930 93
2009-02-03 09:11:47 51°28.816 2°54.798 1.9 30 0.8 99930 93
2009-02-03 09:11:52 51°28.834 2°54.801 1.8 279 0.9 99930 93
2009-02-03 09:11:57 51°28.851 2°54.805 1.5 255 0.9 99930 93
2009-02-03 09:12:02 51°28.869 2°54.808 1.2 284 0.9 99930 93
2009-02-03 09:12:07 51°28.886 2°54.811 1.2 266 0.9 99930 93
2009-02-03 09:12:12 51°28.903 2°54.816 0.9 29 0.9 99930 92
2009-02-03 09:12:17 51°28.921 2°54.819 1 42 0.9 99930 92
2009-02-03 09:12:22 51°28.938 2°54.824 0.9 79 0.9 99940 93
2009-02-03 09:12:26 51°28.952 2°54.827 0.7 35 0.9 99940 93
2009-02-03 09:12:32 51°28.973 2°54.833 0.3 73 0.9 99940 92
2009-02-03 09:12:37 51°28.99 2°54.838 0.2 36 0.9 99940 92
2009-02-03 09:12:42 51°29.007 2°54.842 0.8 283 0.9 99940 93
2009-02-03 09:12:47 51°29.024 2°54.847 0.8 321 0.9 99940 93
2009-02-03 09:12:52 51°29.042 2°54.852 1.4 284 0.9 99950 93